GFSMA_700_spd_021.txt.gz
Wind_Speed
18 17 20 23 30 21 22 20 18 10 8 9 10 12 12 12 9 10 13 16 18 16 17 16 18 16 15 12 10 10 8 8 7 7 8 8 8 10 10 9 9 8 8
16 16 21 26 33 26 25 20 15 11 8 8 9 10 13 13 15 12 16 16 18 21 20 22 21 19 12 19 15 14 12 11 10 9 8 9 9 10 11 13 11 10 10
17 16 17 17 19 28 30 30 8 13 12 15 17 18 16 15 17 18 11 18 22 21 23 24 21 23 9 13 18 17 16 14 13 12 11 10 9 9 9 15 13 12 11
15 15 13 11 13 25 22 21 16 20 17 18 18 22 22 20 18 19 20 21 20 19 21 25 24 22 20 19 18 24 21 18 15 14 14 14 14 12 12 14 17 16 15
17 17 18 15 16 16 16 16 16 20 19 23 24 22 24 22 21 21 21 20 20 18 22 21 25 27 24 18 15 15 21 22 18 18 17 17 18 16 16 15 17 20 19
21 22 24 23 21 20 19 19 23 19 26 23 23 26 27 23 26 23 23 21 20 22 22 24 24 26 24 17 16 16 12 15 21 22 22 19 21 23 22 19 20 20 23
23 25 25 27 25 24 23 24 21 27 24 25 24 21 22 25 27 23 22 24 22 21 23 24 25 18 18 17 15 11 13 16 19 23 19 13 12 16 20 23 21 18 23
22 25 23 25 27 26 28 27 28 28 27 25 23 21 18 16 21 23 23 23 23 22 20 21 18 17 14 11 15 12 13 15 16 19 22 20 19 19 19 23 23 19 20
22 21 20 19 22 24 26 28 30 31 29 28 27 24 15 15 14 23 21 22 23 20 18 18 16 17 15 12 10 9 12 13 13 16 20 23 24 23 24 23 24 25 25
21 20 18 16 14 18 19 23 26 30 30 28 28 26 24 23 25 24 23 17 21 20 17 17 17 13 11 12 13 13 12 13 16 16 19 22 23 24 26 26 25 24 28
19 16 14 13 12 14 17 20 23 22 26 28 29 25 22 22 24 24 21 20 19 21 18 17 14 12 14 13 17 16 17 16 19 19 19 20 22 23 24 25 26 27 25
21 12 11 11 13 14 15 15 18 21 23 25 26 24 23 20 22 22 22 20 19 22 23 23 12 9 21 19 8 18 19 21 22 24 25 25 24 24 23 24 23 22 25
17 14 11 10 11 9 8 8 10 12 15 21 23 20 20 20 21 22 22 21 20 20 22 27 21 19 25 16 18 25 26 25 26 29 29 28 27 26 25 25 24 24 24
15 14 11 10 11 9 2 4 6 6 8 10 15 19 18 20 21 21 21 21 22 23 22 23 27 28 31 29 27 29 31 31 31 31 31 31 30 29 26 25 25 24 25
15 16 11 10 9 6 5 4 3 2 4 5 10 17 18 19 21 23 23 18 22 23 24 24 28 29 30 30 28 29 31 32 31 31 28 29 29 28 26 25 23 22 22
14 14 12 12 10 6 5 3 3 5 6 8 10 13 16 19 20 21 21 22 22 22 22 23 26 26 31 30 29 34 33 31 30 31 32 31 29 24 24 25 25 24 24
13 13 12 12 13 9 4 5 7 6 7 8 10 12 14 16 17 18 20 20 23 25 25 23 24 25 26 26 29 37 39 41 36 32 35 28 22 21 25 29 31 27 25
12 11 12 12 11 11 10 6 5 4 4 5 5 6 7 10 13 16 19 22 23 24 26 25 27 28 28 27 31 28 23 18 20 19 18 20 25 21 22 17 19 22 21
12 10 9 10 11 10 9 8 6 4 6 5 4 4 4 10 13 14 17 20 24 24 24 26 33 35 26 22 24 17 21 14 18 21 27 25 24 19 21 22 26 20 19
11 9 8 9 9 9 9 8 8 8 8 6 6 6 7 7 7 9 10 11 17 18 16 15 13 15 18 14 15 15 19 16 21 21 20 24 22 22 22 23 22 20 21
11 10 8 7 8 8 6 6 7 8 10 10 9 7 7 5 8 9 9 11 13 11 9 13 13 9 9 13 21 21 21 19 19 18 15 18 16 15 15 16 16 18 21
12 10 9 9 9 8 7 8 8 10 11 12 12 11 8 7 7 5 5 6 4 4 8 10 10 12 12 14 15 14 14 14 13 13 12 14 8 8 9 14 12 11 14
14 11 9 8 8 8 7 7 9 11 12 13 13 12 11 9 7 6 7 6 7 7 7 9 10 10 11 10 10 9 9 10 11 12 12 10 11 11 11 14 15 18 18
14 13 12 9 8 8 8 9 9 12 15 16 12 11 10 9 9 8 8 9 9 10 9 9 9 10 10 9 9 11 14 14 14 14 14 15 17 17 17 16 19 20 20
17 14 13 12 11 11 11 12 13 15 16 16 12 10 9 9 9 7 8 11 11 10 8 9 8 9 10 10 11 12 13 16 18 17 21 22 21 23 23 22 22 23 22
18 16 16 14 13 15 16 15 18 19 19 16 13 14 12 10 10 11 12 12 17 14 11 9 10 12 13 14 16 16 16 17 18 22 17 21 21 21 21 20 19 17 17

GFSMA_700_spd_024.txt.gz
Wind_Speed
15 14 18 21 21 18 21 22 21 21 12 11 11 9 11 9 9 8 9 9 9 12 14 15 15 13 15 17 15 10 9 9 8 8 8 8 8 8 9 9 9 9 9
16 17 18 19 21 23 30 27 27 29 14 13 12 10 10 10 13 12 11 10 11 11 15 17 16 16 17 8 14 13 13 12 11 10 10 9 8 9 8 10 13 11 11
16 16 18 18 16 20 15 20 22 24 29 21 18 15 12 11 12 15 15 13 12 14 15 18 17 17 16 15 16 18 16 15 15 14 13 12 10 10 9 10 16 14 13
11 14 16 17 14 15 15 19 21 24 15 12 17 17 19 15 15 14 15 17 13 18 17 15 15 16 19 16 16 18 19 19 19 18 16 15 15 14 12 11 11 17 16
13 15 18 18 17 15 14 19 19 21 19 16 21 23 14 15 17 16 16 18 21 21 18 17 11 14 16 19 20 21 17 20 23 22 19 19 18 18 17 16 15 15 20
14 18 21 22 22 19 20 20 19 22 22 20 22 22 23 23 21 18 17 19 20 19 19 19 17 15 16 14 15 15 16 15 13 26 24 18 11 15 19 21 20 18 20
16 22 23 25 24 22 21 23 25 27 27 20 15 16 18 17 21 18 16 18 20 19 19 19 20 17 18 18 16 20 17 15 13 17 19 16 14 12 11 15 18 20 21
18 20 24 24 23 24 23 21 25 23 21 19 21 20 19 18 14 14 12 13 20 18 18 19 21 22 19 14 13 16 19 14 15 14 14 15 15 16 15 19 19 19 20
23 23 21 21 21 22 17 18 22 25 25 25 23 23 20 14 12 15 15 12 15 18 17 18 20 19 18 19 16 13 17 15 12 11 11 12 14 18 20 21 20 22 22
22 19 17 16 15 16 16 14 17 21 26 26 27 26 22 18 17 19 21 19 15 15 18 18 19 17 16 21 17 13 15 13 11 11 12 13 12 14 18 21 22 22 25
22 21 16 13 12 14 15 15 15 17 20 20 24 22 23 23 24 24 23 21 16 16 17 19 20 18 16 23 22 21 16 17 14 12 12 14 16 17 18 21 22 23 24
21 18 17 13 13 14 15 15 15 13 15 16 18 20 22 23 18 19 17 20 19 15 18 18 20 21 27 13 20 14 24 9 9 13 15 17 20 21 22 23 23 24 24
17 18 15 11 12 14 9 8 7 6 9 13 16 18 20 20 20 14 14 15 18 17 18 19 22 25 22 13 20 16 7 17 16 18 21 23 25 25 24 24 25 25 25
15 16 12 12 10 11 11 5 3 4 3 4 8 13 15 13 14 13 14 13 18 18 18 19 20 20 22 23 23 22 20 19 23 25 25 26 26 26 25 26 26 24 25
13 15 12 12 10 8 7 7 7 5 3 5 5 5 11 12 14 17 16 17 17 18 18 18 20 23 28 31 31 29 28 28 29 30 30 26 24 28 27 27 27 24 24
13 14 12 12 12 6 4 5 4 4 5 5 5 6 10 13 15 16 16 21 17 19 20 19 21 24 22 26 25 24 25 28 30 32 32 34 32 28 27 24 22 23 23
11 13 12 11 11 11 7 5 6 5 4 5 6 7 8 10 13 16 18 17 17 17 19 21 25 23 22 23 23 24 27 26 30 32 22 23 22 21 24 21 22 25 25
11 11 11 11 11 10 9 9 8 7 7 5 4 3 4 5 8 11 13 14 16 18 20 21 24 25 27 28 27 24 31 29 24 25 16 21 25 20 15 14 11 13 16
13 10 10 11 10 9 8 8 8 8 9 7 6 5 3 7 8 9 12 14 15 19 22 21 21 19 20 22 26 25 18 20 14 13 16 20 23 19 21 23 20 24 26
14 11 9 9 10 10 8 8 9 10 10 10 10 9 7 7 6 8 11 12 13 13 14 16 15 13 15 13 12 14 13 14 17 18 17 15 13 15 15 15 13 14 15
16 12 10 10 10 10 8 8 9 10 12 12 11 10 8 7 4 5 5 8 11 12 14 11 9 11 13 10 12 15 16 15 17 17 15 14 16 14 13 15 15 16 15
17 14 10 10 9 9 9 9 9 11 12 15 14 12 10 8 7 6 7 7 8 6 7 10 10 11 14 14 13 14 13 11 10 8 7 9 8 8 10 12 12 12 13
19 15 11 9 10 9 9 9 10 11 15 17 17 14 12 10 8 7 7 7 7 8 8 9 10 11 12 13 13 11 9 11 10 11 11 11 12 12 13 15 16 16 17
22 16 12 10 10 9 10 11 12 14 17 18 17 13 11 11 12 10 8 8 10 11 10 10 9 10 11 11 10 10 12 15 15 13 13 12 15 17 17 18 19 20 21
23 20 14 11 11 12 13 14 15 15 16 17 16 13 12 10 9 8 10 12 13 14 14 12 11 11 10 11 11 12 14 16 16 15 14 16 16 18 19 19 20 19 19
23 17 14 13 11 11 14 15 13 18 20 23 19 13 13 10 10 12 12 14 17 17 13 13 11 13 13 13 14 15 17 17 18 17 14 15 15 16 15 13 12 15 14

GFSMA_700_spd_030.txt.gz
Wind_Speed
14 15 15 16 13 14 13 12 12 15 16 15 15 15 14 13 9 9 12 14 13 12 12 12 11 11 11 12 12 14 15 12 10 10 8 8 8 8 8 8 9 9 9
12 15 17 14 12 13 14 14 16 21 24 20 16 19 14 17 17 10 11 11 12 15 14 15 14 13 13 14 13 14 12 10 10 11 10 8 9 8 8 9 9 11 12
12 16 14 12 14 16 14 15 17 19 22 25 19 20 19 19 20 17 16 15 13 14 13 14 14 14 16 16 15 12 12 14 13 13 13 11 11 11 10 10 10 11 15
7 8 12 13 16 16 17 18 16 13 8 17 17 22 20 23 21 18 17 17 16 17 15 15 14 15 17 18 16 16 16 18 19 18 16 14 14 15 15 15 14 13 11
10 12 13 17 18 20 18 18 17 15 15 15 18 15 22 25 21 20 19 19 17 16 18 17 18 17 16 16 16 17 18 18 19 19 20 20 19 19 18 17 17 16 15
10 10 15 15 20 23 21 19 22 23 20 18 18 25 26 34 31 26 24 17 17 19 19 19 19 16 16 16 16 17 15 17 22 20 23 19 25 23 21 20 20 22 22
11 12 15 19 22 22 23 21 20 22 23 19 20 21 21 24 25 29 23 21 24 22 22 21 20 18 16 16 16 16 21 20 18 23 20 20 20 26 21 19 14 15 16
11 14 16 16 20 18 18 18 19 21 21 23 24 24 25 28 23 17 17 16 22 22 20 20 20 19 18 17 16 19 20 23 20 26 25 23 19 21 23 23 23 21 18
9 10 14 15 14 11 12 14 17 19 21 22 22 24 25 21 29 19 20 18 18 16 15 17 20 18 18 19 19 21 23 25 25 28 27 23 22 21 22 26 25 24 24
9 12 13 13 12 9 11 12 12 14 15 17 21 22 21 23 21 21 16 14 17 16 12 13 17 18 18 18 17 19 24 25 26 24 25 23 23 21 20 22 21 21 22
10 13 15 11 10 10 10 11 12 12 11 13 19 20 22 20 20 19 17 15 13 16 15 14 16 18 19 19 18 19 23 24 22 28 31 27 25 24 23 20 21 22 22
10 12 13 11 10 11 13 7 4 8 9 12 14 15 18 19 20 22 23 20 18 18 18 15 14 14 15 15 13 18 26 24 25 29 28 25 20 19 20 22 22 24 24
10 11 10 11 9 8 10 8 4 1 5 8 10 14 15 17 20 19 16 15 16 17 19 19 17 15 12 12 9 12 14 17 16 11 25 20 21 22 22 22 22 27 26
8 10 10 10 8 6 6 8 6 5 3 1 6 10 14 16 19 18 17 15 13 14 16 15 15 15 13 13 13 12 14 13 13 15 13 20 19 21 20 23 25 26 25
8 10 11 11 11 5 4 5 4 5 4 2 1 2 9 12 17 16 15 15 14 13 14 13 13 12 14 15 15 15 14 11 11 11 12 14 16 20 24 26 26 28 30
7 8 11 12 11 9 6 6 6 5 5 5 3 2 2 5 7 8 10 12 13 15 18 15 14 14 14 15 17 17 15 16 17 18 17 18 21 18 22 25 26 29 34
9 8 9 10 10 10 9 8 8 8 8 4 3 2 3 4 6 9 11 12 13 12 16 15 14 14 15 15 17 19 21 20 21 21 20 18 18 16 15 17 16 15 15
11 9 8 9 10 9 8 9 9 9 9 9 7 5 2 2 4 7 10 11 13 16 17 14 13 14 16 17 19 20 18 14 17 16 15 10 10 12 14 17 18 23 24
14 11 9 9 9 8 7 7 8 9 10 10 8 6 4 4 4 4 6 7 8 11 14 14 15 16 15 13 13 13 11 11 12 14 13 13 14 15 16 15 15 15 15
14 14 10 7 8 7 6 6 7 8 9 10 9 7 5 2 0 3 3 4 7 9 11 12 12 11 12 14 10 10 10 12 17 18 17 16 16 16 15 17 16 11 11
12 13 12 7 5 5 5 4 5 6 9 11 11 8 6 5 4 4 2 3 4 5 8 9 11 12 10 11 11 13 17 18 17 17 15 12 10 9 9 9 9 10 14
11 11 13 9 3 2 3 4 5 7 10 11 12 11 9 7 5 5 5 5 6 6 6 7 8 10 12 13 14 17 18 18 11 10 10 11 12 13 12 12 13 14 15
12 10 11 9 5 2 3 5 6 7 8 11 13 9 9 8 6 6 6 6 6 6 7 9 11 12 13 14 14 15 14 13 12 13 13 14 14 14 15 16 17 18 19
14 11 11 8 6 4 4 6 7 6 8 10 12 11 9 9 9 7 7 7 8 9 11 13 13 13 13 12 12 12 12 13 14 13 14 16 17 18 19 19 19 19 18
16 12 12 7 6 5 3 5 8 7 8 9 11 11 11 11 10 10 10 11 12 13 15 15 14 13 12 13 12 13 14 15 16 17 18 18 17 16 15 15 15 15 13
15 12 10 7 6 5 5 7 6 10 14 12 11 12 13 12 11 11 12 13 13 15 16 15 15 14 12 15 15 16 16 17 17 17 18 15 14 14 14 13 13 13 13

GFSMA_700_spd_033.txt.gz
Wind_Speed
15 11 11 11 13 15 14 17 12 11 12 13 15 17 14 12 10 11 15 17 15 13 13 12 11 10 11 11 10 9 11 11 11 9 9 8 9 7 6 7 8 8 9
14 14 15 15 15 17 17 16 16 15 16 20 21 18 20 17 15 14 12 15 15 16 16 13 13 13 12 13 12 11 13 15 11 9 9 9 10 10 8 8 9 8 11
16 14 15 13 14 16 17 15 14 16 18 19 26 24 22 22 19 18 16 15 14 15 14 14 15 13 13 14 13 13 11 10 10 10 12 12 12 12 11 10 10 9 11
10 10 9 10 14 15 16 15 17 18 17 16 20 25 22 21 23 22 17 18 18 18 15 15 16 15 14 15 15 16 16 15 17 17 17 17 16 15 15 15 14 13 12
6 13 14 14 15 19 18 19 20 18 17 13 13 20 21 24 23 23 19 18 17 17 18 19 16 17 16 16 16 16 18 19 19 20 20 20 19 19 20 18 17 17 16
11 14 12 16 17 19 20 21 21 22 22 20 20 23 21 21 26 25 24 17 18 19 19 19 20 20 17 17 17 17 18 18 19 23 23 21 24 26 24 21 20 19 20
11 10 11 16 18 19 21 23 22 24 24 25 25 22 23 24 25 27 25 24 22 24 24 20 19 19 19 18 20 20 19 19 24 24 19 25 23 25 23 27 24 21 17
11 12 14 17 19 19 19 17 18 20 22 23 24 23 23 21 17 25 27 29 28 28 28 23 21 21 20 20 19 19 18 22 26 23 26 26 25 24 26 25 28 23 23
12 13 14 16 18 17 16 16 15 14 18 21 22 23 24 25 23 27 24 24 25 22 23 21 20 19 19 20 21 21 21 23 27 29 28 31 21 27 26 22 27 27 26
10 11 12 14 12 11 11 13 15 15 12 15 20 22 22 22 23 29 29 23 21 21 19 18 19 17 17 18 17 17 19 20 24 25 30 30 26 31 26 25 25 24 25
10 10 12 12 10 9 11 11 12 13 12 12 12 16 19 21 19 18 26 23 20 18 21 20 16 15 14 17 18 18 16 16 24 30 29 24 30 31 29 25 24 24 25
8 8 10 10 8 7 11 8 6 5 8 12 12 13 15 17 17 20 16 17 25 20 15 17 16 15 14 15 16 13 16 16 22 21 26 23 25 25 27 22 24 26 24
8 9 9 9 8 6 8 9 8 6 4 6 11 13 14 15 16 18 17 18 20 25 20 20 18 17 16 15 13 11 10 14 15 12 10 17 20 21 20 22 25 28 30
7 8 8 9 7 5 7 7 8 8 8 5 2 7 11 13 16 16 14 14 14 19 17 16 16 18 17 15 14 13 14 15 13 12 11 12 13 20 21 24 27 28 30
8 9 11 9 10 8 7 7 6 6 7 5 3 1 5 10 13 14 12 12 16 14 12 9 13 16 16 15 16 16 17 17 15 14 13 13 14 17 20 21 27 30 31
9 9 8 9 9 9 9 7 7 7 5 3 3 3 3 2 4 8 11 10 11 11 17 14 13 14 16 16 17 17 17 16 18 19 19 19 20 22 22 23 22 23 25
11 8 7 7 8 8 7 6 7 7 8 7 4 3 1 2 5 8 10 12 13 14 13 12 13 15 17 17 19 19 19 20 20 18 16 17 19 18 17 16 18 20 19
13 9 7 6 6 7 7 7 8 8 8 7 6 4 2 1 2 5 8 11 12 14 16 17 15 16 17 18 19 20 19 17 14 14 13 15 13 13 14 17 18 17 20
12 11 9 7 7 7 7 7 8 9 10 9 7 5 3 2 3 4 5 7 8 10 12 14 14 16 17 17 14 13 12 12 14 14 17 17 18 19 18 20 21 20 19
10 11 10 6 5 5 5 4 5 7 10 11 10 9 7 5 3 5 5 5 6 8 9 10 12 13 13 13 13 11 15 14 17 21 22 23 21 21 22 20 19 20 16
10 9 10 6 3 3 3 4 5 7 8 8 9 8 7 6 5 5 5 6 6 7 8 9 11 11 10 11 13 14 16 21 22 24 19 18 15 15 14 14 14 14 13
9 8 7 6 3 2 3 4 5 7 8 10 11 9 8 7 6 6 6 7 8 8 8 8 9 10 11 14 15 16 18 20 20 19 14 15 17 17 17 16 16 16 17
12 8 7 6 3 4 4 5 6 7 7 9 11 11 9 9 9 10 10 9 8 8 8 10 11 12 14 14 14 15 16 17 15 14 16 17 18 18 18 19 19 21 22
13 12 8 6 3 4 4 4 6 6 7 10 10 11 11 11 12 12 11 11 11 12 13 14 15 15 15 15 14 14 15 15 15 16 18 19 19 21 21 21 21 22 21
13 15 11 8 5 5 5 4 5 4 6 10 11 11 11 12 13 13 12 12 12 12 13 13 14 14 14 14 15 16 17 18 19 20 21 22 21 21 19 17 17 18 18
11 18 14 10 6 6 5 6 9 10 10 13 11 12 12 13 14 18 15 13 12 13 13 14 15 16 15 16 17 17 19 20 21 22 22 21 21 19 17 15 15 15 15